Location: Banksville Park
(38.5557°N, 75.1182°W)
Time: 12:50:44
(UTC+00:00)

Cosmos 1500 - Pass Details

Date: 19 September 2020
Orbit: 498 x 520 km, 82.5° (Epoch: 25 October)

Event Time Altitude Azimuth Distance (km) Brightness Sun altitude
Rises 09:17:01 0° 347° (NNW) 2,648 6.9 -17.9°
Reaches altitude 10° 09:19:12 10° 342° (NNW) 1,753 5.9 -17.5°
Maximum altitude 09:22:56 52° 266° (W) 648 3.2 -16.8°
Drops below altitude 10° 09:26:37 10° 190° (S) 1,727 5.6 -16.1°
Sets 09:28:45 0° 185° (S) 2,604 6.6 -15.7°
